Regional Weather Roundup
Issued by NWS

Home | Current Version | Previous Version | Text Only | Print | Product List | Glossary On
Versions: 1 2 3 4 5 6 7 8 9 10 11 12 13 14 15 16 17 18 19 20 21 22 23 24 25 26 27 28 29 30 31 32 33 34 35 36 37 38 39 40 41 42 43 44 45 46 47 48 49 50
000
ASUS45 KCYS 271710
RWRWY

WYOMING REGIONAL WEATHER ROUNDUP
NATIONAL WEATHER SERVICE CHEYENNE WY
1100 AM MDT MON APR 27 2015

NOTE:  "FAIR" INDICATES FEW OR NO CLOUDS BELOW 12,000 FEET
WITH NO SIGNIFICANT WEATHER AND/OR OBSTRUCTIONS TO VISIBILITY.

WYZ001-271800-
YELLOWSTONE NATIONAL PARK

CITY           SKY/WX    TMP DP  RH WIND       PRES   REMARKS
LK YELLOWSTONE   N/A     34  25  69 E6        30.34R WCI  29
W YELLOWSTONE  NOT AVBL

$$
WYZ002>013-054>058-071-098>099-271800-
NORTHERN WYOMING

CITY           SKY/WX    TMP DP  RH WIND       PRES   REMARKS
JACKSON        SUNNY     45  28  53 CALM      30.29S
CODY           PTSUNNY   43  34  70 N3        30.34S
GREYBULL       CLOUDY    45  36  70 E6        30.35S
WORLAND        CLOUDY    44  34  67 CALM      30.35S
SHERIDAN       FAIR      44  37  76 CALM      30.35S
BUFFALO        CLOUDY    42  35  76 VRB6      30.34S
GILLETTE       CLOUDY    38  35  89 N9        30.34S WCI  31
HULETT         LGT RAIN  36  34  93 W3        30.35S
NEWCASTLE      DRIZZLE   43  41  93 NW9       30.30S

$$
WYZ014>020-022>026-101>103-271800-
CENTRAL WYOMING

CITY           SKY/WX    TMP DP  RH WIND       PRES   REMARKS
BIG PINEY      CLOUDY    45  31  58 S6        30.28S
PINEDALE       CLOUDY    41  36  81 CALM      30.29S
DUBOIS         CLOUDY    37  32  81 E12       30.30S WCI  30
LANDER         CLOUDY    40  36  86 CALM      30.32S
RIVERTON       CLOUDY    42  33  70 NW8       30.34R
CASPER         CLOUDY    37  33  85 NE8       30.33R WCI  31
DOUGLAS        LGT RAIN  38  36  92 NW8       30.33R WCI  32

$$
WYZ021-027>030-104>119-271800-
SOUTHERN WYOMING

CITY           SKY/WX    TMP DP  RH WIND       PRES   REMARKS
EVANSTON       CLOUDY    40  34  79 N8        30.28S WCI  34
KEMMERER       CLOUDY    43  34  70 CALM      30.29R
FORT BRIDGER   CLOUDY    43  39  87 SE3       30.32R
ROCK SPRINGS   CLOUDY    41  35  79 NE15      30.29R
DIXON          FAIR      49  35  59 CALM      30.23S
RAWLINS        CLOUDY    43  34  70 NE14      30.27R
SARATOGA       CLOUDY    43  34  70 W3        30.24S
LARAMIE        CLOUDY    41  32  70 E5        30.25S
CHEYENNE       CLOUDY    38  35  89 N3        30.28R FOG
TORRINGTON     CLOUDY    47  41  80 S3        30.29R
PINE BLUFFS    CLOUDY    41  37  87 NE5       30.29R FOG

$$



USA.gov is the U.S. government's official web portal to all federal, state and local government web resources and services.